Probability
18 17 16 15 12 9 10 12 13 13 12 11 10 7 5 4 3 2 1 1 2 2 3 4 5 6 5 2 3 6 8 8 6 4 4 4 3 2 2 1 2 3 3
21 19 17 16 15 14 13 14 15 15 14 12 11 9 7 5 4 3 2 1 1 2 3 4 6 7 7 5 5 9 10 10 9 7 6 6 5 4 3 2 2 3 2
24 21 18 17 18 18 18 18 17 17 16 15 13 12 10 7 4 3 2 1 0 1 2 3 6 9 9 8 9 11 12 12 12 11 10 7 5 4 3 1 1 1 1
26 23 20 18 18 19 20 20 18 18 18 16 15 14 12 10 7 5 4 2 2 1 1 2 5 9 11 11 11 13 14 14 13 12 10 7 5 3 2 1 1 0 0
28 24 20 18 17 18 19 18 17 19 19 17 16 16 15 12 10 8 6 5 4 3 1 1 3 7 11 12 13 14 14 13 12 11 9 7 5 4 3 2 2 1 1
28 24 18 17 18 17 16 15 16 18 18 18 18 17 16 13 12 10 9 7 5 4 3 2 3 5 9 12 12 12 11 11 11 10 9 8 7 6 4 3 3 3 2
29 25 20 19 19 18 15 14 16 18 18 18 18 18 17 16 13 11 10 9 7 5 4 4 5 7 9 9 9 8 9 10 11 11 11 10 10 9 7 5 4 3 3
28 26 25 23 22 21 18 18 19 19 18 17 17 17 17 17 14 11 10 11 9 7 5 6 8 11 11 9 9 8 9 10 11 12 12 11 11 11 10 8 6 5 4
25 26 28 27 26 27 25 22 20 18 16 15 14 15 15 15 14 11 10 12 12 10 8 9 11 13 12 10 10 10 10 10 11 12 11 9 9 9 9 9 9 8 7
22 25 27 27 27 29 28 24 20 18 16 14 13 13 14 15 14 11 11 14 16 14 13 13 13 13 10 8 8 9 10 10 10 11 11 9 8 7 7 9 10 10 10
25 25 24 23 23 24 26 25 22 20 18 16 13 13 14 15 14 11 11 15 18 19 18 17 15 12 8 5 5 6 7 7 7 8 9 10 9 8 8 10 11 12 12
29 27 23 20 19 19 21 23 23 22 20 17 15 13 14 15 14 12 10 12 15 18 20 18 15 10 7 3 2 2 3 4 4 5 7 10 10 10 10 10 11 12 12
30 27 22 20 18 16 17 19 21 21 20 18 15 13 14 15 15 13 11 9 9 12 15 15 12 9 7 4 1 0 0 2 3 5 7 9 9 9 10 10 11 11 11
29 26 23 21 19 16 14 15 16 18 19 19 17 16 17 18 18 16 12 9 7 7 9 10 8 7 7 5 2 1 1 2 4 6 7 7 8 8 9 9 10 11 11
28 26 23 23 21 18 15 14 14 14 15 16 16 18 20 20 19 15 11 9 7 6 7 8 7 7 7 6 5 3 3 4 5 6 6 6 7 7 8 9 11 12 12
26 26 24 22 22 21 18 16 13 10 9 9 10 13 15 14 12 9 6 5 5 5 6 7 7 6 6 7 8 7 7 6 6 7 7 7 7 7 7 9 10 11 11
26 26 25 23 21 20 19 17 15 11 7 4 4 5 5 5 4 2 1 1 2 2 3 5 6 6 7 8 9 9 9 7 6 7 7 7 7 6 6 6 7 7 7
27 27 27 25 22 20 19 18 17 14 10 6 2 1 1 0 0 0 0 0 1 1 2 4 5 5 7 7 8 8 8 6 5 5 5 5 5 4 4 4 4 4 4
27 26 26 23 21 19 18 18 17 14 11 7 3 1 0 0 1 1 1 1 2 2 2 4 4 5 6 6 6 6 6 6 4 3 3 2 2 3 3 3 3 3 3
27 25 22 19 17 16 15 15 14 11 9 7 4 2 1 1 2 2 2 2 2 1 1 3 4 5 6 6 6 6 6 5 4 2 1 1 1 1 2 2 1 1 2
26 23 19 15 14 13 12 11 10 8 7 5 5 4 2 2 2 1 1 1 1 0 0 1 3 4 6 6 6 6 5 3 2 1 0 0 0 0 1 1 0 0 1
23 20 17 14 12 11 10 8 8 7 5 4 4 3 1 1 1 0 0 0 1 1 1 1 2 3 5 6 6 5 3 1 0 0 0 0 0 1 2 1 1 0 0
21 19 16 13 12 11 9 8 7 7 5 3 2 1 1 1 0 0 0 0 1 2 2 2 2 2 3 3 3 3 1 0 0 0 0 0 0 2 3 3 2 1 0
19 18 15 12 11 10 9 8 8 7 5 2 1 1 1 1 0 0 0 0 1 1 1 1 1 0 1 1 1 1 0 0 0 0 0 0 0 1 2 2 2 1 0
15 15 13 11 10 9 7 7 7 7 6 3 1 0 1 1 0 0 0 0 0 0 0 0 0 0 0 0 0 0 0 0 0 0 0 0 0 0 1 1 1 0 0
12 12 12 11 9 7 5 5 6 6 6 4 1 0 0 0 0 0 0 0 0 0 0 0 0 0 0 0 0 0 0 0 0 0 0 0 0 0 0 0 0 0 0
Wind_Speed
8 7 6 5 6 5 4 4 4 3 3 3 3 3 3 2 2 2 2 2 2 2 2 2 2 2 1 1 1 1 2 2 2 2 1 1 1 1 1 1 1 1 1
8 7 7 6 5 5 5 4 4 4 3 4 3 3 3 3 2 3 3 2 2 2 2 2 2 1 1 1 1 1 2 2 3 2 1 1 1 2 2 2 1 2 1
8 8 7 6 6 6 6 5 4 4 4 4 3 3 3 3 3 3 3 3 3 3 2 2 2 2 2 2 2 1 1 2 2 3 2 1 1 1 1 1 1 0 2
8 8 8 8 8 7 6 5 5 5 4 4 4 4 4 3 3 3 3 2 2 2 2 3 3 3 3 3 2 2 2 2 2 2 2 1 1 1 1 1 1 1 2
8 8 8 8 7 6 5 5 5 5 5 4 4 3 3 3 3 3 3 3 3 2 2 3 3 3 4 3 2 2 3 2 2 2 2 1 1 1 2 2 2 1 2
8 8 8 6 6 6 6 5 5 5 4 4 4 4 3 3 3 5 4 3 3 3 2 2 2 2 3 3 4 5 5 5 4 3 2 3 3 3 2 3 2 1 2
7 7 6 6 6 6 6 5 5 5 4 3 4 3 3 4 4 4 5 3 2 2 2 2 2 1 2 2 3 3 4 5 7 5 5 5 4 4 4 3 3 3 4
6 6 5 5 5 5 5 5 4 3 3 3 3 3 3 3 4 4 5 3 2 2 2 2 2 2 2 2 2 2 2 3 5 5 5 6 5 5 6 5 5 3 2
5 5 5 6 5 5 5 5 4 3 3 3 3 4 3 3 4 4 5 2 2 2 2 2 2 2 2 3 2 2 2 3 4 5 5 5 6 6 5 3 2 2 2
6 6 6 5 5 6 6 5 3 3 4 3 3 3 3 3 3 4 5 2 2 2 2 2 3 3 2 3 3 2 3 4 3 2 2 3 4 4 6 5 5 4 2
4 5 5 5 5 5 4 3 3 3 2 2 2 2 3 3 3 5 5 3 3 3 2 2 2 3 3 4 3 3 5 4 2 2 2 2 2 2 3 4 4 5 4
4 4 4 4 4 3 3 3 3 3 3 3 2 2 2 2 3 4 6 6 5 4 4 3 3 4 4 4 3 4 4 2 1 1 1 2 3 3 3 4 5 5 6
4 4 3 4 3 3 3 3 2 2 3 2 2 2 2 2 2 5 6 7 6 4 3 3 3 3 3 2 4 4 3 1 1 2 3 4 3 3 2 2 2 3 3
4 4 4 4 3 2 2 3 3 3 3 3 3 3 3 2 2 2 2 3 3 3 2 1 1 1 1 2 3 3 3 2 3 3 3 3 2 1 1 2 2 2 1
4 4 3 3 4 3 2 2 3 4 4 4 4 4 3 4 5 5 4 3 3 3 3 1 0 0 1 1 2 2 2 2 3 3 2 2 2 2 2 1 1 1 2
5 4 4 4 3 3 2 1 1 1 3 5 5 5 4 5 5 5 5 5 5 4 3 1 2 2 2 3 2 2 2 2 3 2 2 2 2 2 2 2 1 1 2
6 5 4 4 4 4 3 3 1 2 2 2 3 5 5 4 4 4 4 4 4 5 2 2 2 2 3 3 3 3 3 3 2 2 2 2 2 2 2 2 2 2 3
5 5 4 3 3 3 3 3 3 3 1 2 3 4 4 3 3 4 4 4 2 2 2 2 2 2 3 3 3 3 3 2 2 2 2 2 2 2 3 3 3 3 3
4 3 3 3 3 3 2 3 3 3 2 2 1 2 1 1 1 2 4 2 2 2 2 2 3 3 3 3 2 2 2 2 2 2 2 3 3 3 3 3 3 4 3
4 5 5 4 3 2 2 3 3 3 2 2 2 2 1 2 1 1 2 2 2 2 2 2 2 2 2 2 2 2 2 2 2 2 3 3 3 3 3 4 3 3 3
3 4 5 4 3 3 3 3 3 3 3 3 3 2 4 3 3 2 2 2 2 2 2 2 2 2 2 2 1 2 2 2 2 3 3 3 3 3 3 3 4 4 3
3 3 3 3 3 3 3 3 3 3 3 3 2 1 4 2 2 1 1 2 2 2 2 1 1 1 1 1 1 1 1 2 2 3 3 3 3 3 3 3 3 3 3
3 3 3 2 2 3 3 2 3 3 3 3 2 2 2 2 1 1 1 1 1 0 0 1 1 0 1 1 0 1 1 2 3 3 3 3 3 3 3 3 4 3 3
3 3 3 2 2 2 2 2 2 2 2 2 2 2 2 2 1 1 1 1 1 1 1 1 1 1 1 1 1 1 1 2 2 2 3 3 3 2 2 2 3 3 2
3 3 3 3 3 2 2 2 2 2 3 3 2 2 1 2 2 1 1 1 1 1 1 1 0 0 0 1 1 2 3 3 3 2 2 2 2 1 1 1 1 2 1
2 3 3 2 2 3 3 2 2 3 3 3 3 2 2 2 1 1 1 1 1 1 1 0 0 1 1 0 1 2 2 3 3 3 2 1 1 1 1 1 1 1 1
Wind_Direction
188 187 185 185 192 192 196 204 201 198 194 196 203 203 208 211 204 191 212 218 219 253 257 231 247 248 228 208 185 174 173 153 177 249 251 226 169 175 160 166 169 178 184
187 183 186 186 186 191 201 204 197 197 197 200 199 197 204 208 202 191 211 222 216 230 246 245 257 255 241 220 191 190 188 176 167 198 241 222 202 190 168 177 183 184 195
181 183 187 189 191 197 202 200 195 192 194 195 190 194 205 211 206 203 209 223 218 221 222 226 240 225 241 227 197 192 196 183 161 168 201 213 216 163 123 182 196 236 218
180 186 194 200 201 202 199 194 195 194 195 198 197 201 205 208 208 208 207 218 225 227 226 223 224 217 224 217 203 196 179 164 153 156 172 194 208 168 135 178 243 254 245
179 188 202 205 199 195 194 196 197 200 206 202 201 212 212 210 219 211 208 214 213 228 239 234 228 219 214 208 196 189 172 169 167 170 184 188 200 178 198 197 209 230 259
182 194 197 193 189 192 195 196 198 203 205 196 202 209 217 232 228 209 201 214 213 216 235 246 244 233 220 211 195 182 176 176 185 189 200 201 219 211 193 185 184 181 258
183 187 184 183 186 191 190 187 194 197 195 200 211 206 220 234 223 212 202 194 203 212 225 230 248 255 227 216 200 197 202 201 192 186 194 213 212 206 188 196 198 198 219
180 178 180 181 186 187 186 194 199 196 198 205 208 216 226 241 225 217 199 188 200 215 222 220 225 244 223 187 189 199 221 227 216 205 207 218 216 203 193 195 200 207 237
179 178 180 181 182 183 190 199 196 184 197 203 203 212 218 250 230 207 185 187 210 234 235 225 216 230 218 180 165 200 253 266 242 217 218 224 217 206 187 157 160 165 236
188 188 180 176 179 186 192 194 193 189 202 198 203 209 213 236 237 206 184 183 212 246 257 241 224 219 212 183 183 198 238 257 253 249 247 250 233 216 200 193 190 194 206
183 175 176 179 182 183 183 181 178 176 175 182 204 224 228 237 235 212 195 191 203 221 236 245 244 221 214 206 205 219 238 247 250 238 243 251 248 236 226 217 204 196 203
162 166 176 179 181 170 164 169 167 170 179 194 209 234 249 247 239 225 215 216 210 209 227 227 226 217 215 216 221 240 245 243 227 229 251 258 252 247 239 225 221 220 218
153 166 171 166 166 160 163 173 175 181 192 210 214 237 260 259 250 240 229 228 227 225 239 216 204 204 209 231 251 249 237 208 207 227 242 250 247 248 241 230 234 233 244
157 170 164 162 163 162 168 181 186 197 204 210 221 234 248 255 255 250 241 234 229 224 230 208 180 199 215 240 256 254 239 225 215 232 245 253 255 252 247 237 234 231 253
169 167 165 170 170 171 179 198 204 216 212 207 221 222 225 239 248 231 205 210 204 199 165 138 143 280 278 272 266 267 255 245 240 245 248 256 256 252 257 246 235 225 233
171 173 178 179 181 180 180 219 320 265 241 226 228 223 233 234 233 211 204 206 197 165 142 172 206 218 226 235 241 256 260 250 246 240 241 241 241 242 258 264 235 236 252
174 179 177 181 187 188 186 186 226 334 352 299 257 240 230 225 216 204 198 189 171 148 157 208 217 219 228 234 232 231 242 248 243 238 239 242 245 244 239 247 247 253 255
173 180 178 183 190 193 195 197 198 198 234 289 286 257 241 227 215 205 172 130 115 149 195 216 231 232 227 227 231 234 244 254 246 247 253 253 247 243 245 245 241 243 250
171 178 178 182 189 194 195 197 203 203 205 218 251 300 269 177 133 149 146 151 181 201 214 223 234 236 231 230 232 230 233 241 248 242 246 254 255 248 250 250 247 247 237
179 183 180 186 190 189 195 202 203 198 196 202 215 220 186 126 116 150 177 194 197 212 221 229 239 239 230 230 235 237 241 248 248 243 250 255 254 248 247 246 246 244 239
175 181 182 189 195 196 199 205 202 194 192 200 217 212 174 165 177 185 185 197 202 212 224 235 248 262 245 235 238 244 242 249 251 252 256 261 260 257 255 248 244 244 245
169 175 180 186 196 199 203 204 194 191 193 195 197 173 171 161 168 167 178 208 216 216 216 214 231 260 268 243 237 239 251 269 276 275 272 269 265 263 258 252 249 247 246
164 169 178 191 192 192 194 190 188 193 193 188 177 164 166 182 181 174 178 184 171 161 139 131 134 331 347 356 337 228 232 254 264 264 264 268 269 264 264 262 257 251 251
165 171 178 186 182 180 181 188 190 189 174 162 159 159 163 163 155 154 154 138 126 114 102 108 120 96 44 34 12 350 319 298 288 267 254 259 268 270 268 270 268 257 248
164 169 172 178 177 174 171 172 168 156 149 149 145 138 128 123 128 135 139 134 121 101 84 89 95 95 44 25 359 340 328 329 324 316 286 270 276 276 284 282 285 305 291
159 163 169 175 174 167 164 163 152 141 140 140 138 130 128 127 131 139 136 126 116 101 102 126 71 81 74 51 5 6 358 349 339 329 317 315 311 329 341 320 312 314 310